Weather in Denyatino

Russia / Vladimir Oblast     55°30′26″N   41°40′23″E
temp.,
°C
wind,
m/s
gust,
m/s
humid.,
%
clouds,
%
prec.,
mm/h
press.,
hPa
HPBL,
m
3 march, wed
wed300:00−2wnw4109599 0.1 1006347
03:00−4nw5119193 0.1 1008481
06:00−7nw5129246 0.0 1010451
09:00−6nw6128969 0.0 1012518
12:00−4nw6108584 0.0 1012773
15:00−2wnw597850 0.0 1012945
18:00−3w5109171 0.1 1010680
21:00−2wsw5129584 0.1 1009544
4 march, thu
thu400:00−2wsw61291100 0.1 1006742
03:00−2wsw61393100 0.3 1004726
06:00−1wsw61395100 0.3 1001701
09:00+1w81497100 1.0 9991026
12:00−2wnw51090100 1.5 999698
15:000wnw4979100 1.8 999951
18:00−3nw2488100 0.0 999106
21:00−4nnw1192100 0.0 99921
5 march, fri
fri500:00−4n2397100 0.5 999142
03:00−6nnw3796100 0.8 1000238
06:00−9n489699 0.0 1003226
09:00−9n359387 0.1 1006250
12:00−5nnw248029 0.0 1007570
15:00−4wnw127014 0.0 1009851
18:00−8sw228585 0.0 100921
21:00−9s339164 0.0 101161
6 march, sat
sat600:00−7ssw3795100 0.6 1011305
03:00−8wnw5109499 0.7 1012353
06:00−12wnw489470 0.0 1012198
09:00−11nw489357 0.0 1013329
12:00−9nw578126 0.0 1014773
15:00−9nw577757 0.1 10141016
18:00−12wnw338865 0.0 101457
21:00−12wsw379244 0.0 1015161
7 march, sun
sun700:00−12sw499266 0.0 1013225
03:00−13sw4109233 0.0 1010242
06:00−10ssw6148770 0.0 1006526
09:00−8sw8149185 0.2 10021022
12:00−5sw91690100 0.7 9981200
15:00−3sw91592100 1.7 9941247
18:00−2sw91792100 1.3 9931242
21:00−6w5137798 2.9 994499